Home   Weather   Bratislava   Past weeks

Flag for Slovakia Past Weather in Bratislava, Slovakia — Yesterday and Last 2 Weeks

Now
25 °F

Overcast.


Feels Like: 15 °F
Forecast: 16 / 28 °F
Wind: 10 mph from Northwest

Location: Bratislava Ivanka

Current Time: Jan 24, 2017 at 4:18:09 pm

Latest Report: Jan 24, 2017 at 3:30 pm


Visibility: 4 mi

Pressure: 30.30 "Hg

Humidity: 80%

Dew Point: 19 °F

Location of BratislavaLocation

Past Weather in Bratislava — Graph

°F

Bratislava Temperature Yesterday

Maximum temperature yesterday: 25 °F (at 5:30 am)
Minimum temperature yesterday: 14 °F (at 12:00 am)
Average temperature yesterday: 21 °F

High & Low Weather Summary for the Past Weeks

 TemperatureHumidityPressure
High43 °F (Jan 13, 12:30 pm)100% (Jan 12, 12:00 pm)30.66 "Hg (Jan 12, 12:00 pm)
Low7 °F (Jan 11, 1:30 am)53% (Jan 13, 2:00 pm)29.47 "Hg (Jan 13, 5:30 am)
Average23 °F80%30.22 "Hg
* Reported Jan 9 3:00 pm — Jan 24 3:00 pm, Bratislava, Weather by CustomWeather, © 2017

Note: Actual official high and low records may vary slightly from our data, if they occured in-between our weather recording intervals... More about our weather records

Advertising

Bratislava Weather History for the Previous 24 Hours

Scroll right to see more
 ConditionsComfort  
Time TempWeatherWind HumidityBarometerVisibility
3:00 pm
Tue, Jan 24
25 °FOvercast.10 mph80%30.30 "Hg4 mi
2:30 pm25 °FMostly cloudy.12 mph80%30.30 "Hg4 mi
2:00 pm25 °FIce fog.13 mph80%30.30 "Hg3 mi
1:30 pm25 °FOvercast.12 mph86%30.30 "Hg4 mi
1:00 pm25 °FIce fog.9 mph86%30.30 "Hg3 mi
12:30 pm25 °FIce fog.8 mph86%30.30 "Hg3 mi
12:00 pm25 °FIce fog.9 mph86%30.30 "Hg3 mi
11:30 am25 °FIce fog.10 mph86%30.30 "Hg3 mi
11:00 am25 °FIce fog.9 mph80%30.30 "Hg3 mi
10:30 am25 °FIce fog.3 mph80%30.30 "Hg2 mi
10:00 am23 °FIce fog.3 mph86%30.30 "Hg2 mi
9:30 am23 °FIce fog.1 mph86%30.30 "Hg3 mi
9:00 am21 °FIce fog.No wind93%30.30 "Hg2 mi
8:30 am21 °FIce fog.1 mph93%30.30 "Hg2 mi
8:00 am21 °FIce fog.2 mph93%30.27 "Hg2 mi
7:30 am21 °FIce fog.5 mph93%30.27 "Hg2 mi
7:00 am21 °FIce fog.7 mph86%30.27 "Hg2 mi
6:30 am21 °FIce fog.6 mph93%30.27 "Hg2 mi
6:00 am21 °FIce fog.7 mph93%30.27 "Hg2 mi
5:30 am21 °FIce fog.6 mph93%30.27 "Hg2 mi
5:00 am21 °FIce fog.5 mph93%30.27 "Hg2 mi
4:30 am21 °FIce fog.7 mph93%30.27 "Hg2 mi
4:00 am21 °FIce fog.7 mph93%30.27 "Hg2 mi
3:30 am21 °FIce fog.3 mph93%30.27 "Hg2 mi
3:00 am21 °FIce fog.2 mph93%30.27 "Hg2 mi
2:30 am21 °FIce fog.2 mph93%30.27 "Hg2 mi
2:00 am21 °FIce fog.2 mph93%30.27 "Hg2 mi
1:30 am21 °FIce fog.2 mph93%30.27 "Hg2 mi
1:00 am21 °FIce fog.3 mph93%30.27 "Hg2 mi
12:30 am21 °FIce fog.3 mph93%30.27 "Hg2 mi
12:00 am21 °FIce fog.5 mph93%30.30 "Hg2 mi
11:30 pm
Mon, Jan 23
21 °FIce fog.2 mph93%30.30 "Hg2 mi
11:00 pm21 °FIce fog.6 mph93%30.30 "Hg2 mi
10:30 pm21 °FIce fog.3 mph93%30.30 "Hg2 mi
10:00 pm21 °FIce fog.3 mph93%30.30 "Hg2 mi
9:30 pm21 °FIce fog.1 mph93%30.30 "Hg2 mi
9:00 pm21 °FIce fog.1 mph93%30.30 "Hg2 mi
8:30 pm21 °FIce fog.2 mph86%30.30 "Hg2 mi
8:00 pm19 °FIce fog.3 mph93%30.30 "Hg2 mi
7:30 pm19 °FIce fog.6 mph93%30.30 "Hg2 mi
7:00 pm19 °FIce fog.8 mph93%30.30 "Hg3 mi
6:30 pm19 °FPassing clouds.5 mph93%30.30 "Hg4 mi
6:00 pm21 °FPassing clouds.6 mph86%30.30 "Hg4 mi
5:30 pm25 °FPartly cloudy.6 mph80%30.30 "Hg4 mi
5:00 pm23 °FPartly cloudy.7 mph86%30.30 "Hg4 mi
4:30 pm25 °FBroken clouds.6 mph86%30.30 "Hg4 mi
4:00 pm25 °FPartly sunny.8 mph86%30.30 "Hg4 mi
Weather by CustomWeather, © 2017

See weather overviewHow to use our weather pages